#timestamp,LO_Frequency,Hit,StdDev 
1684346415.2,286047002.3,N
1684346435.0,286047002.8,N
1684346435.9,286047002.8,N
1684346455.8,286047000.0,N
1684346475.6,286047002.8,N
1684346495.5,286046999.7,N
1684346515.3,286047001.0,N
1684346535.1,286047000.3,N
1684346555.9,286047000.4,N
1684346575.7,286047000.9,N
1684346595.5,286047001.2,N
1684346615.4,286047000.4,N
1684346635.2,286047001.0,N
1684346655.0,286047001.0,N
1684346656.0,286047001.0,N
1684346675.8,286047000.5,N
1684346695.6,286047000.1,N
1684346715.5,286047002.7,N
1684346735.3,286047002.4,N
1684346755.1,286046999.9,N
1684346775.9,286047000.4,N
1684346795.7,286047001.1,N
1684346815.5,286047001.0,N
1684346835.4,286046998.7,N
1684346855.2,286047002.6,N
1684346875.1,286047000.4,N
1684346876.0,286047000.4,N
1684346895.8,286047000.8,N
1684346915.6,286047000.6,N
1684346935.5,286047000.7,N
1684346955.3,286046998.2,N
1684346975.1,286046998.3,N
1684346995.9,286047000.8,N
1684347015.7,286047001.2,N
1684347035.6,286047001.2,N
1684347055.4,286046998.3,N
1684347075.2,286047000.4,N
1684347095.1,286047001.8,N
1684347096.0,286047001.8,N
1684347115.8,286047001.7,N
1684347135.6,286047002.1,N
1684347155.5,286047004.3,Y
1684347175.3,286047002.2,P
1684347195.2,286047001.5,N
1684347215.9,286047002.0,P
1684347235.7,286047002.0,Y
1684347255.6,286046999.8,P
1684347275.4,286047002.4,N
1684347295.2,286047000.1,N
1684347315.1,286047002.8,N
1684347316.0,286047002.8,N
1684347335.8,286047000.0,N
1684347355.7,286047000.7,N
1684347375.5,286047000.4,N
1684347395.3,286047000.3,N
1684347415.2,286046999.9,N
1684347435.0,286046999.8,N
1684347435.9,286046999.8,N
1684347455.7,286047000.3,N
1684347475.6,286046998.1,N
1684347495.4,286046998.5,N
1684347515.3,286046998.5,N
1684347535.1,286046998.4,N
1684347555.8,286047001.0,N
1684347575.7,286047000.4,N
1684347595.5,286047002.7,N
1684347615.4,286046999.7,N
1684347635.2,286047000.4,N
1684347655.0,286046998.8,N
1684347655.9,286046998.8,N
1684347675.8,286046999.6,N
1684347695.6,286046996.9,N
1684347715.4,286046997.1,N
1684347735.3,286046995.1,Y
1684347755.1,286046995.3,P
1684347775.9,286046997.7,N
1684347795.7,286046995.4,N
1684347815.5,286046995.2,N
1684347835.4,286046995.3,N
1684347855.2,286046993.8,Y
1684347875.0,286046997.4,P
1684347876.0,286046997.4,P
1684347895.8,286046998.0,P
1684347915.6,286046996.5,Y
1684347935.5,286047000.4,P
1684347955.3,286047000.9,N
1684347975.1,286046998.1,N
1684347995.9,286046998.8,N
1684348015.7,286046999.0,N
1684348035.6,286046998.2,N
1684348055.4,286046998.2,N
1684348075.2,286046999.0,N
1684348095.1,286046998.5,N
1684348096.0,286046998.5,N
1684348115.8,286047002.8,N
1684348135.7,286047000.4,N
1684348155.5,286046999.7,N
1684348175.3,286047002.0,N
1684348195.2,286047001.5,N
1684348215.0,286047002.2,N
1684348215.9,286047002.2,N
1684348235.7,286047002.3,N
1684348255.6,286047004.3,N
1684348275.4,286047003.5,N
1684348295.3,286047001.6,N
1684348315.1,286047002.2,N
1684348316.0,286047002.2,N
1684348335.8,286047000.2,N
1684348355.7,286047000.9,N
1684348375.5,286047000.6,N
1684348395.3,286046999.9,N
1684348415.2,286046999.7,N
1684348435.0,286047002.2,N
1684348435.9,286047002.2,N
1684348455.8,286047001.8,N
1684348475.6,286047001.6,N
1684348495.4,286047001.6,N
1684348515.3,286047001.8,N
1684348535.1,286047001.4,N
1684348555.8,286047001.8,N
1684348575.7,286047002.7,N
1684348595.5,286047000.1,N
1684348615.4,286047004.4,Y
1684348635.2,286047002.7,P
1684348655.0,286047001.9,N
1684348655.9,286047001.9,P
1684348675.8,286047000.6,N
1684348695.6,286046999.1,N
1684348715.5,286046996.3,Y
1684348735.3,286046994.1,P
1684348755.1,286046991.8,N
1684348775.9,286046992.4,N
1684348795.7,286046990.5,N
1684348815.5,286046990.5,N
1684348835.4,286046993.2,N
1684348855.2,286046991.0,N
1684348875.1,286046991.5,N
1684348876.0,286046991.5,N
1684348895.8,286046991.3,N
1684348915.6,286046988.5,Y
1684348935.5,286046997.3,P
1684348955.3,286046996.7,N
1684348975.1,286046997.0,N
1684348995.9,286046999.6,N
1684349015.7,286046997.8,N
1684349035.6,286046995.4,N
1684349055.4,286046994.9,N
1684349075.2,286046995.4,N
1684349095.1,286046995.2,N
1684349096.0,286046995.2,N
1684349115.8,286046993.4,Y
1684349135.6,286046996.6,P
1684349155.5,286046997.1,P
1684349175.3,286046997.1,P
1684349195.2,286046997.8,Y
1684349215.9,286046999.9,P
1684349235.7,286047001.6,N
1684349255.6,286047002.6,N
1684349275.4,286047004.3,N
1684349295.2,286047003.9,N
1684349315.1,286047002.0,N
1684349316.0,286047002.0,N
1684349335.8,286047003.8,N
1684349355.7,286047002.1,N
1684349375.5,286047000.0,N
1684349395.3,286046998.2,N
1684349415.2,286046999.5,N
1684349435.0,286046996.7,N
1684349435.9,286046996.7,N
1684349485.8,286046995.6,E
1684349495.7,286046997.3,N
1684349515.5,286047001.2,P
1684349535.4,286046998.1,N
1684349555.2,286046999.2,N
1684349575.0,286046999.2,N
1684349575.9,286046999.2,N
1684349595.8,286046999.6,N
1684349615.6,286046996.6,Y
1684349635.5,286046999.0,P
1684349655.3,286046999.2,P
1684349675.1,286046999.0,P
1684349695.9,286046999.6,Y
1684349715.7,286046999.1,P
1684349735.5,286046998.7,P
1684349755.4,286046998.6,P
1684349775.2,286046998.7,Y
1684349795.1,286046998.7,P
1684349796.0,286046998.7,P
1684349815.8,286046998.2,P
1684349835.6,286046998.7,Y
1684349855.5,286046998.5,P
1684349875.3,286046998.5,P
1684349895.2,286046998.1,P
1684349915.9,286047000.5,N
1684349935.7,286046999.9,N
1684349955.6,286047002.6,N
1684349975.4,286047002.2,N
1684349995.2,286047002.7,N
